Location: Ladysmith
(45.4630°N, 91.1040°W)
Time: 12:26:28
(UTC-05:00)

Amateur Radio Satellites - All Passes

Search period start: 30 October 2014 11:56
Search period end: 31 October 2014 11:56
Location: Ladysmith, 45.4630°N, 91.1040°W

Satellite Date Start Highest point End Downlink Frequencies (MHz)
Time Altitude Azimuth
ISS 30 Oct 12:04:19 12:07:38 71° 334° (NNW) 12:10:59 145.800 FM
Oscar 19 30 Oct 12:17:23 12:20:38 17° 59° (ENE) 12:23:52 437.125 CW, 437.150 USB
Sapphire 30 Oct 12:22:19 12:27:42 64° 242° (WSW) 12:33:03 437.095 MHz 1200 baud AX-25 AFSK
Oscar 11 30 Oct 12:22:49 12:25:16 15° 299° (WNW) 12:27:43 145.825 FM, Beacon 2401.500 USB
SO-50 30 Oct 12:26:10 12:30:41 74° 308° (NW) 12:35:22 436.795 FM
HO-68 30 Oct 12:28:39 12:33:18 19° 310° (NW) 12:37:57 435.675 MHz FM
FUNcube-1 30 Oct 12:35:51 12:39:07 22° 295° (WNW) 12:42:19 145.950 - 145.970 MHz USB
PCSat 30 Oct 12:44:23 12:49:26 40° 247° (WSW) 12:54:26 145.825 MHz
AO-27 30 Oct 12:51:03 12:54:02 16° 57° (ENE) 12:57:01 436.795 MHz FM
Gurwin Techsat 1B 30 Oct 13:02:15 13:03:13 11° 53° (NE) 13:04:12 435.225 FM
Oscar 16 30 Oct 13:02:18 13:07:05 40° 68° (ENE) 13:11:53 437.025 USB, Beacon 2401.1428
JAS-1B 30 Oct 13:16:17 13:21:45 49° 68° (ENE) 13:27:17 435.800 - 435.900 CW/SSB
UOSAT-12 30 Oct 13:16:29 13:20:48 40° 118° (ESE) 13:25:12 437.025 FM, 437.400 FM
KITSAT 1 30 Oct 13:16:59 13:24:34 42° 318° (NW) 13:32:11 435.175 FM
Uribyol 2 30 Oct 13:33:17 13:37:58 35° 66° (ENE) 13:42:41 436.500 FM
ITAMSAT 1 30 Oct 13:40:49 13:45:36 38° 67° (ENE) 13:50:25 435.822 SSB
ISS 30 Oct 13:41:46 13:44:43 28° 353° (N) 13:47:41 145.800 FM
AO-Echo 30 Oct 13:46:16 13:51:05 51° 70° (ENE) 13:56:06 ?
Oscar 19 30 Oct 13:54:15 13:59:23 74° 257° (WSW) 14:04:32 437.125 CW, 437.150 USB
Saudisat 1A 30 Oct 13:57:33 14:01:25 28° 42° (NE) 14:05:16 436.775 MHz
SO-50 30 Oct 14:09:08 14:12:05 16° 329° (NNW) 14:15:05 436.795 FM
AO-7 30 Oct 14:09:41 14:15:11 20° 45° (NE) 14:20:42 29.400 - 29.500 MHz
AO-27 30 Oct 14:27:37 14:32:51 85° 255° (WSW) 14:38:07 436.795 MHz FM
Gurwin Techsat 1B 30 Oct 14:36:55 14:42:09 63° 72° (ENE) 14:47:26 435.225 FM
Oscar 16 30 Oct 14:42:09 14:46:33 28° 265° (W) 14:50:57 437.025 USB, Beacon 2401.1428
TMSAT-1 30 Oct 14:44:06 14:49:15 55° 71° (ENE) 14:54:27 436.925 FM
UOSAT-12 30 Oct 14:56:48 15:01:02 33° 317° (NW) 15:05:20 437.025 FM, 437.400 FM
JAS-1B 30 Oct 15:08:20 15:12:51 24° 267° (W) 15:17:22 435.800 - 435.900 CW/SSB
Uribyol 2 30 Oct 15:12:43 15:17:25 34° 264° (W) 15:22:10 436.500 FM
KITSAT 1 30 Oct 15:17:01 15:22:28 19° 345° (NNW) 15:27:55 435.175 FM
ISS 30 Oct 15:18:55 15:22:01 33° 13° (NNE) 15:25:06 145.800 FM
ITAMSAT 1 30 Oct 15:20:34 15:25:09 31° 265° (W) 15:29:46 435.822 SSB
AO-Echo 30 Oct 15:26:23 15:30:11 22° 269° (W) 15:34:06 ?
Saudisat 1A 30 Oct 15:36:56 15:41:08 43° 241° (WSW) 15:45:18 436.775 MHz
Uosat F 30 Oct 15:37:32 15:41:45 28° 64° (ENE) 15:46:00 435.120 FM
AO-7 30 Oct 15:58:25 16:06:38 73° 67° (ENE) 16:14:54 29.400 - 29.500 MHz
AO-27 30 Oct 16:11:29 16:13:08 11° 273° (W) 16:14:48 436.795 MHz FM
Gurwin Techsat 1B 30 Oct 16:18:56 16:22:34 19° 270° (W) 16:26:15 435.225 FM
TMSAT-1 30 Oct 16:25:32 16:29:31 21° 268° (W) 16:33:32 436.925 FM
UOSAT-12 30 Oct 16:41:50 16:42:38 10° 340° (NNW) 16:43:27 437.025 FM, 437.400 FM
JAS-2 30 Oct 16:49:16 16:55:11 41° 63° (ENE) 17:01:48 435.800 - 435.900 CW/SSB, 435.910 FM
ISS 30 Oct 16:55:34 16:58:54 68° 212° (SSW) 17:02:13 145.800 FM
Uosat F 30 Oct 17:15:38 17:20:22 41° 262° (W) 17:25:09 435.120 FM
KITSAT 1 30 Oct 17:15:58 17:21:30 19° 16° (NNE) 17:27:00 435.175 FM
Hamsat 30 Oct 17:28:27 17:32:21 39° 71° (ENE) 17:36:16 145.90 MHz
SO-50 30 Oct 17:37:18 17:37:42 10° 19° (NNE) 17:38:07 436.795 FM
OPAL 30 Oct 17:39:14 17:43:08 23° 96° (E) 17:47:01 ?
AO-7 30 Oct 17:53:24 18:00:08 27° 267° (W) 18:06:55 29.400 - 29.500 MHz
JAS-2 30 Oct 18:34:18 18:40:12 41° 266° (W) 18:46:52 435.800 - 435.900 CW/SSB, 435.910 FM
ISS 30 Oct 18:34:25 18:35:02 10° 229° (SW) 18:35:40 145.800 FM
AO-40 30 Oct 18:50:24 01:03:36 40° 181° (S) 04:02:23 Beacon 2401.320
SO-67 30 Oct 18:57:41 19:00:58 45° 73° (ENE) 19:04:18 435.3500 MHz FM
Hamsat 30 Oct 19:05:24 19:08:28 20° 268° (W) 19:11:32 145.90 MHz
KITSAT 1 30 Oct 19:11:39 19:19:20 44° 43° (NE) 19:26:57 435.175 FM
SO-50 30 Oct 19:15:29 19:19:47 31° 42° (NE) 19:24:08 436.795 FM
OPAL 30 Oct 19:17:31 19:22:16 47° 293° (WNW) 19:26:59 ?
RS-15 30 Oct 19:23:31 19:26:38 12° 93° (E) 19:29:43 29.354 - 29.394 USB, Beacon 29.352 USB
HO-68 30 Oct 19:24:41 19:29:59 23° 53° (NE) 19:35:18 435.675 MHz FM
STRAND 1 30 Oct 19:33:27 19:38:20 41° 98° (E) 19:43:10 ?
UOSAT-12 30 Oct 20:04:37 20:07:27 16° 30° (NNE) 20:10:16 437.025 FM, 437.400 FM
SO-67 30 Oct 20:32:58 20:34:13 12° 270° (W) 20:35:27 435.3500 MHz FM
Oscar 10/S400 30 Oct 20:36:02 21:10:48 47° 198° (SSW) 04:26:11 145.825 - 145.975 CW/USB, Beacon 145.810 USB
SO-50 30 Oct 20:55:53 21:00:31 46° 241° (WSW) 21:05:10 436.795 FM
UKube-1 30 Oct 21:07:02 21:10:53 31° 67° (ENE) 21:14:44 145.840 MHz, 145.915 MHz
KITSAT 1 30 Oct 21:07:09 21:14:58 55° 245° (WSW) 21:22:44 435.175 FM
HO-68 30 Oct 21:09:41 21:16:52 85° 253° (WSW) 21:24:07 435.675 MHz FM
STRAND 1 30 Oct 21:12:59 21:17:21 28° 296° (WNW) 21:21:40 ?
ZACube-1 30 Oct 21:15:37 21:18:32 17° 63° (ENE) 21:21:24 437.345 MHz
RS-15 30 Oct 21:25:42 21:36:20 59° 115° (ESE) 21:46:55 29.354 - 29.394 USB, Beacon 29.352 USB
MaSat-1 30 Oct 21:33:18 21:33:49 10° 105° (ESE) 21:34:20 437.345 MHz
Oscar 11 30 Oct 21:42:12 21:46:28 64° 73° (ENE) 21:50:45 145.825 FM, Beacon 2401.500 USB
UOSAT-12 30 Oct 21:43:48 21:48:32 65° 51° (NE) 21:53:09 437.025 FM, 437.400 FM
FUNcube-1 30 Oct 21:57:05 22:01:19 41° 70° (ENE) 22:05:29 145.950 - 145.970 MHz USB
UKube-1 30 Oct 22:43:19 22:47:03 27° 264° (W) 22:50:49 145.840 MHz, 145.915 MHz
ZACube-1 30 Oct 22:50:02 22:54:31 58° 259° (W) 22:58:55 437.345 MHz
HO-68 30 Oct 23:01:21 23:05:36 16° 272° (W) 23:09:53 435.675 MHz FM
MaSat-1 30 Oct 23:05:01 23:08:52 69° 299° (WNW) 23:12:19 437.345 MHz
Oscar 11 30 Oct 23:21:01 23:23:05 13° 271° (W) 23:25:09 145.825 FM, Beacon 2401.500 USB
UOSAT-12 30 Oct 23:25:01 23:28:11 18° 249° (WSW) 23:31:19 437.025 FM, 437.400 FM
FUNcube-1 30 Oct 23:34:20 23:37:50 22° 267° (W) 23:41:18 145.950 - 145.970 MHz USB
RS-15 30 Oct 23:38:25 23:48:58 51° 321° (NW) 23:59:37 29.354 - 29.394 USB, Beacon 29.352 USB
JAS-1B 31 Oct 00:57:50 01:01:15 14° 87° (E) 01:04:54 435.800 - 435.900 CW/SSB
Oscar 16 31 Oct 01:14:03 01:15:36 11° 87° (E) 01:17:08 437.025 USB, Beacon 2401.1428
Sapphire 31 Oct 01:27:17 01:28:49 11° 101° (ESE) 01:30:20 437.095 MHz 1200 baud AX-25 AFSK
PCSat 31 Oct 01:46:30 01:50:13 19° 106° (ESE) 01:53:57 145.825 MHz
AO-Echo 31 Oct 01:52:34 01:55:37 15° 88° (E) 01:58:38 ?
ITAMSAT 1 31 Oct 01:54:15 01:55:17 11° 86° (E) 01:56:18 435.822 SSB
RS-15 31 Oct 01:55:37 02:04:40 28° 353° (N) 02:13:53 29.354 - 29.394 USB, Beacon 29.352 USB
Oscar 19 31 Oct 02:03:53 02:08:29 33° 96° (E) 02:13:04 437.125 CW, 437.150 USB
AO-27 31 Oct 02:38:53 02:43:26 29° 95° (E) 02:47:55 436.795 MHz FM
JAS-1B 31 Oct 02:45:40 02:52:41 72° 104° (ESE) 03:01:05 435.800 - 435.900 CW/SSB
Oscar 16 31 Oct 02:50:32 02:55:42 87° 105° (ESE) 03:00:50 437.025 USB, Beacon 2401.1428
Gurwin Techsat 1B 31 Oct 02:51:40 02:55:41 21° 92° (E) 02:59:40 435.225 FM
TMSAT-1 31 Oct 02:58:40 03:02:18 18° 90° (E) 03:05:54 436.925 FM
Sapphire 31 Oct 03:05:53 03:11:17 77° 119° (ESE) 03:16:44 437.095 MHz 1200 baud AX-25 AFSK
Uribyol 2 31 Oct 03:22:31 03:27:45 74° 103° (ESE) 03:32:55 436.500 FM
PCSat 31 Oct 03:27:40 03:33:04 70° 304° (NW) 03:38:30 145.825 MHz
AO-Echo 31 Oct 03:29:37 03:34:58 78° 286° (WNW) 03:40:15 ?
ITAMSAT 1 31 Oct 03:30:20 03:35:36 81° 104° (ESE) 03:40:48 435.822 SSB
Oscar 19 31 Oct 03:43:13 03:47:49 34° 294° (WNW) 03:52:24 437.125 CW, 437.150 USB
AO-7 31 Oct 03:58:49 04:04:32 20° 89° (E) 04:10:13 29.400 - 29.500 MHz
RS-15 31 Oct 04:11:08 04:21:11 37° 28° (NNE) 04:31:30 29.354 - 29.394 USB, Beacon 29.352 USB
AO-27 31 Oct 04:18:10 04:23:02 40° 293° (WNW) 04:27:52 436.795 MHz FM
Gurwin Techsat 1B 31 Oct 04:30:48 04:36:00 56° 289° (WNW) 04:41:10 435.225 FM
Oscar 16 31 Oct 04:31:36 04:34:21 15° 303° (WNW) 04:37:06 437.025 USB, Beacon 2401.1428
JAS-1B 31 Oct 04:37:21 04:42:54 27° 300° (WNW) 04:49:13 435.800 - 435.900 CW/SSB
TMSAT-1 31 Oct 04:37:25 04:42:41 64° 288° (WNW) 04:47:54 436.925 FM
Sapphire 31 Oct 04:51:04 04:55:19 23° 320° (NW) 04:59:35 437.095 MHz 1200 baud AX-25 AFSK
OPAL 31 Oct 04:55:50 05:00:48 55° 68° (ENE) 05:05:44 ?
Uribyol 2 31 Oct 05:03:16 05:06:38 18° 302° (WNW) 05:09:59 436.500 FM
AO-Echo 31 Oct 05:10:30 05:12:51 13° 305° (NW) 05:15:12 ?
ITAMSAT 1 31 Oct 05:11:17 05:14:26 16° 302° (WNW) 05:17:34 435.822 SSB
PCSat 31 Oct 05:14:03 05:17:30 17° 326° (NW) 05:20:58 145.825 MHz
STRAND 1 31 Oct 05:16:22 05:18:15 12° 55° (NE) 05:20:08 ?
Uosat F 31 Oct 05:20:44 05:25:40 51° 100° (E) 05:30:34 435.120 FM
JAS-2 31 Oct 05:40:28 05:47:30 35° 92° (E) 05:54:21 435.800 - 435.900 CW/SSB, 435.910 FM
Saudisat 1A 31 Oct 05:45:28 05:49:12 28° 115° (ESE) 05:52:57 436.775 MHz
AO-7 31 Oct 05:50:01 05:58:25 88° 109° (ESE) 06:06:47 29.400 - 29.500 MHz
TMSAT-1 31 Oct 06:20:33 06:21:34 11° 307° (NW) 06:22:35 436.925 FM
RS-15 31 Oct 06:23:56 06:35:08 89° 55° (NE) 06:46:49 29.354 - 29.394 USB, Beacon 29.352 USB
OPAL 31 Oct 06:36:13 06:40:00 21° 265° (W) 06:43:46 ?
Hamsat 31 Oct 06:47:14 06:51:25 61° 101° (E) 06:55:37 145.90 MHz
STRAND 1 31 Oct 06:51:25 06:56:33 75° 73° (ENE) 07:01:43 ?
Uosat F 31 Oct 07:00:12 07:04:07 23° 298° (WNW) 07:08:01 435.120 FM
MaSat-1 31 Oct 07:12:40 07:14:44 21° 53° (NE) 07:16:40 437.345 MHz
Saudisat 1A 31 Oct 07:24:29 07:28:37 39° 314° (NW) 07:32:48 436.775 MHz
JAS-2 31 Oct 07:25:08 07:32:48 59° 292° (WNW) 07:40:18 435.800 - 435.900 CW/SSB, 435.910 FM
AO-7 31 Oct 07:43:51 07:50:15 26° 310° (NW) 07:56:40 29.400 - 29.500 MHz
SO-67 31 Oct 07:51:28 07:54:44 39° 98° (E) 07:57:59 435.3500 MHz FM
Hamsat 31 Oct 08:24:33 08:26:54 15° 298° (WNW) 08:29:15 145.90 MHz
STRAND 1 31 Oct 08:33:25 08:36:18 15° 271° (W) 08:39:13 ?
HO-68 31 Oct 08:36:51 08:41:02 16° 87° (E) 08:45:11 435.675 MHz FM
RS-15 31 Oct 08:37:30 08:46:09 27° 257° (WSW) 08:55:06 29.354 - 29.394 USB, Beacon 29.352 USB
MaSat-1 31 Oct 08:48:57 08:49:51 11° 254° (WSW) 08:50:44 437.345 MHz
Saudisat 1A 31 Oct 09:08:30 09:09:24 11° 336° (NNW) 09:10:19 436.775 MHz
JAS-2 31 Oct 09:12:11 09:16:16 15° 312° (NW) 09:20:20 435.800 - 435.900 CW/SSB, 435.910 FM
SO-67 31 Oct 09:25:28 09:27:23 14° 295° (WNW) 09:29:17 435.3500 MHz FM
ISS 31 Oct 09:41:06 09:42:20 12° 132° (SE) 09:43:34 145.800 FM
KITSAT 1 31 Oct 09:45:49 09:50:42 18° 101° (E) 09:55:36 435.175 FM
Sapphire 31 Oct 10:09:02 10:13:08 21° 38° (NE) 10:17:14 437.095 MHz 1200 baud AX-25 AFSK
HO-68 31 Oct 10:22:32 10:29:47 83° 106° (ESE) 10:36:59 435.675 MHz FM
UKube-1 31 Oct 10:28:33 10:32:42 41° 99° (E) 10:36:49 145.840 MHz, 145.915 MHz
PCSat 31 Oct 10:30:29 10:35:13 29° 44° (NE) 10:39:55 145.825 MHz
ZACube-1 31 Oct 10:37:43 10:41:01 22° 93° (E) 10:44:16 437.345 MHz
Oscar 11 31 Oct 11:03:34 11:07:54 84° 284° (WNW) 11:12:13 145.825 FM, Beacon 2401.500 USB
SO-50 31 Oct 11:12:52 11:16:56 35° 116° (ESE) 11:21:08 436.795 FM
ISS 31 Oct 11:15:11 11:18:30 75° 149° (SSE) 11:21:50 145.800 FM
FUNcube-1 31 Oct 11:20:02 11:24:13 62° 101° (E) 11:28:19 145.950 - 145.970 MHz USB
KITSAT 1 31 Oct 11:36:46 11:44:50 80° 120° (ESE) 11:52:57 435.175 FM
JAS-1B 31 Oct 11:49:35 11:51:10 11° 49° (NE) 11:52:45 435.800 - 435.900 CW/SSB
